20040725,000004,1045460,33.820000,-121.840000,17.716,33.338,NaN,NaN
20040725,000034,1045490,33.820000,-121.839833,17.711,33.337,NaN,NaN
20040725,000104,1045520,33.820167,-121.839500,17.724,33.336,NaN,NaN
20040725,000134,1045550,33.820167,-121.839500,17.735,33.337,NaN,NaN
20040725,000204,1045580,33.820333,-121.839333,17.728,33.337,NaN,NaN
20040725,000234,1045610,33.820333,-121.839167,17.726,33.337,NaN,NaN
20040725,000304,1045640,33.820333,-121.839167,17.735,33.337,NaN,NaN
20040725,000334,1045670,33.820333,-121.839000,17.728,33.337,NaN,NaN
20040725,000404,1045700,33.820333,-121.839000,17.633,33.341,NaN,NaN
20040725,000434,1045730,33.820167,-121.839000,17.537,33.342,NaN,NaN
20040725,000504,1045760,33.820167,-121.838833,17.553,33.337,NaN,NaN
20040725,000534,1045790,33.820000,-121.839000,17.594,33.336,NaN,NaN
20040725,000604,1045820,33.820000,-121.839000,17.644,33.337,NaN,NaN
20040725,000634,1045850,33.819833,-121.839000,17.696,33.334,NaN,NaN
20040725,000704,1045880,33.819833,-121.839000,17.733,33.336,NaN,NaN
20040725,000734,1045910,33.819667,-121.839000,17.749,33.337,NaN,NaN
20040725,000804,1045940,33.819667,-121.839000,17.756,33.336,NaN,NaN
20040725,000834,1045970,33.819667,-121.838833,17.750,33.338,NaN,NaN
20040725,000904,1046000,33.819667,-121.838667,17.748,33.337,NaN,NaN
20040725,000934,1046030,33.819667,-121.838667,17.743,33.337,NaN,NaN
20040725,001004,1046060,33.819667,-121.838500,17.741,33.338,NaN,NaN
20040725,001034,1046090,33.819667,-121.838333,17.740,33.338,NaN,NaN
20040725,001104,1046120,33.819667,-121.838333,17.748,33.337,NaN,NaN
20040725,001134,1046150,33.819667,-121.838167,17.752,33.337,NaN,NaN
20040725,001204,1046180,33.819667,-121.838167,17.751,33.338,NaN,NaN
20040725,001234,1046210,33.819667,-121.838167,17.758,33.337,NaN,NaN
20040725,001304,1046240,33.819667,-121.838000,17.761,33.338,NaN,NaN
20040725,001334,1046270,33.819667,-121.838000,17.759,33.338,NaN,NaN
20040725,001404,1046300,33.819667,-121.837833,17.765,33.338,NaN,NaN
20040725,001434,1046330,33.819500,-121.837833,17.768,33.337,NaN,NaN
20040725,001504,1046360,33.819500,-121.837833,17.772,33.338,NaN,NaN
20040725,001534,1046390,33.819500,-121.837833,17.775,33.338,NaN,NaN
20040725,001604,1046420,33.819500,-121.837667,17.779,33.338,NaN,NaN
20040725,001634,1046450,33.819500,-121.837500,17.782,33.338,NaN,NaN
20040725,001704,1046480,33.819500,-121.837500,17.779,33.338,NaN,NaN
20040725,001734,1046510,33.819500,-121.837333,17.781,33.338,NaN,NaN
20040725,001804,1046540,33.819500,-121.837167,17.783,33.338,NaN,NaN
20040725,001834,1046570,33.819500,-121.837000,17.781,33.338,NaN,NaN
20040725,001904,1046600,33.819500,-121.836833,17.780,33.338,NaN,NaN
20040725,001934,1046630,33.819500,-121.836833,17.779,33.338,NaN,NaN
20040725,002004,1046660,33.819500,-121.836667,17.780,33.339,NaN,NaN
20040725,002034,1046690,33.819500,-121.836667,17.772,33.339,NaN,NaN
20040725,002104,1046720,33.819500,-121.836500,17.774,33.338,NaN,NaN
20040725,002134,1046750,33.819500,-121.836333,17.779,33.338,NaN,NaN
20040725,002204,1046780,33.819500,-121.836167,17.781,33.339,NaN,NaN
20040725,002234,1046810,33.819500,-121.836167,17.773,33.339,NaN,NaN
20040725,002304,1046840,33.819500,-121.836000,17.773,33.338,NaN,NaN
20040725,002334,1046870,33.819500,-121.835833,17.772,33.340,NaN,NaN
20040725,002404,1046900,33.819500,-121.835833,17.760,33.339,NaN,NaN
20040725,002434,1046930,33.819500,-121.835667,17.750,33.339,NaN,NaN
20040725,002504,1046960,33.819500,-121.835500,17.747,33.339,NaN,NaN
20040725,002534,1046990,33.819500,-121.835333,17.754,33.338,NaN,NaN
20040725,002604,1047020,33.819500,-121.835167,17.753,33.339,NaN,NaN
20040725,002634,1047050,33.819500,-121.835000,17.758,33.338,NaN,NaN
20040725,002704,1047080,33.819333,-121.834833,17.769,33.339,NaN,NaN
20040725,002734,1047110,33.819333,-121.834833,17.765,33.340,NaN,NaN
20040725,002804,1047140,33.819333,-121.834667,17.748,33.340,NaN,NaN
20040725,002834,1047170,33.819333,-121.834667,17.748,33.339,NaN,NaN
20040725,002904,1047200,33.819333,-121.834667,17.743,33.340,NaN,NaN
20040725,002934,1047230,33.819167,-121.834667,17.741,33.339,NaN,NaN
20040725,003004,1047260,33.819167,-121.834667,17.741,33.339,NaN,NaN
20040725,003034,1047290,33.819167,-121.834667,17.742,33.339,NaN,NaN
20040725,003104,1047320,33.819000,-121.834500,17.743,33.339,NaN,NaN
20040725,003134,1047350,33.819000,-121.834500,17.748,33.339,NaN,NaN
20040725,003204,1047380,33.819000,-121.834333,17.749,33.340,NaN,NaN
20040725,003234,1047410,33.819000,-121.834333,17.746,33.340,NaN,NaN
20040725,003304,1047440,33.819000,-121.834167,17.746,33.339,NaN,NaN
20040725,003334,1047470,33.819000,-121.834000,17.750,33.339,NaN,NaN
20040725,003404,1047500,33.819000,-121.833833,17.744,33.340,NaN,NaN
20040725,003434,1047530,33.819000,-121.833500,17.743,33.339,NaN,NaN
20040725,003504,1047560,33.819000,-121.833500,17.746,33.339,NaN,NaN
20040725,003534,1047590,33.819000,-121.833333,17.744,33.339,NaN,NaN
20040725,003604,1047620,33.819000,-121.833167,17.745,33.339,NaN,NaN
20040725,003634,1047650,33.819167,-121.833167,17.752,33.340,NaN,NaN
20040725,003704,1047680,33.819167,-121.833000,17.762,33.339,NaN,NaN
20040725,003734,1047710,33.819333,-121.832833,17.761,33.339,NaN,NaN
20040725,003804,1047740,33.819333,-121.832833,17.753,33.340,NaN,NaN
20040725,003834,1047770,33.819333,-121.832833,17.749,33.339,NaN,NaN
20040725,003904,1047800,33.819333,-121.832833,17.741,33.340,NaN,NaN
20040725,003934,1047830,33.819500,-121.832667,17.714,33.340,NaN,NaN
20040725,004004,1047860,33.819333,-121.832500,17.698,33.340,NaN,NaN
20040725,004034,1047890,33.819333,-121.832333,17.685,33.340,NaN,NaN
20040725,004104,1047920,33.819333,-121.832333,17.669,33.341,NaN,NaN
20040725,004134,1047950,33.819333,-121.832333,17.670,33.340,NaN,NaN
20040725,004204,1047980,33.819333,-121.832333,17.671,33.339,NaN,NaN
20040725,004234,1048010,33.819333,-121.832167,17.662,33.340,NaN,NaN
20040725,004304,1048040,33.819333,-121.832167,17.637,33.341,NaN,NaN
20040725,004334,1048070,33.819333,-121.832167,17.614,33.339,NaN,NaN
20040725,004404,1048100,33.819167,-121.832167,17.604,33.340,NaN,NaN
20040725,004434,1048130,33.819167,-121.832000,17.590,33.339,NaN,NaN
20040725,004504,1048160,33.819167,-121.832000,17.586,33.340,NaN,NaN
20040725,004534,1048190,33.819000,-121.832000,17.596,33.339,NaN,NaN
20040725,004604,1048220,33.819000,-121.831833,17.608,33.339,NaN,NaN
20040725,004634,1048250,33.819000,-121.831833,17.627,33.338,NaN,NaN
20040725,004704,1048280,33.819000,-121.831667,17.674,33.336,NaN,NaN
20040725,004734,1048310,33.818833,-121.831667,17.700,33.339,NaN,NaN
20040725,004804,1048340,33.818833,-121.831500,17.711,33.340,NaN,NaN
20040725,004834,1048370,33.818833,-121.831333,17.717,33.339,NaN,NaN
20040725,004904,1048400,33.818667,-121.831333,17.728,33.339,NaN,NaN
20040725,004934,1048430,33.818667,-121.831167,17.736,33.339,NaN,NaN
20040725,005004,1048460,33.818667,-121.831000,17.736,33.340,NaN,NaN
20040725,005034,1048490,33.818667,-121.830833,17.728,33.341,NaN,NaN
20040725,005104,1048520,33.818500,-121.830833,17.721,33.340,NaN,NaN
20040725,005134,1048550,33.818333,-121.831000,17.722,33.340,NaN,NaN
20040725,005204,1048580,33.818333,-121.831167,17.728,33.340,NaN,NaN
20040725,005234,1048610,33.818333,-121.831167,17.728,33.340,NaN,NaN
20040725,005304,1048640,33.818333,-121.831333,17.717,33.340,NaN,NaN
20040725,005334,1048670,33.818500,-121.831667,17.707,33.340,NaN,NaN
20040725,005404,1048700,33.818500,-121.831667,17.709,33.339,NaN,NaN
20040725,005434,1048730,33.818500,-121.831833,17.716,33.339,NaN,NaN
20040725,005504,1048760,33.818500,-121.831833,17.721,33.339,NaN,NaN
20040725,005534,1048790,33.818667,-121.832000,17.730,33.339,NaN,NaN
20040725,005604,1048820,33.818667,-121.832167,17.736,33.339,NaN,NaN
20040725,005634,1048850,33.818833,-121.832333,17.728,33.339,NaN,NaN
20040725,005704,1048880,33.818833,-121.832500,17.728,33.339,NaN,NaN
20040725,005734,1048910,33.818833,-121.832500,17.727,33.339,NaN,NaN
20040725,005804,1048940,33.818833,-121.832667,17.728,33.338,NaN,NaN
20040725,005834,1048970,33.818833,-121.832667,17.728,33.338,NaN,NaN
20040725,005904,1049000,33.818833,-121.832833,17.726,33.338,NaN,NaN
20040725,005934,1049030,33.819000,-121.833000,17.730,33.338,NaN,NaN
20040725,010004,1049060,33.819000,-121.833167,17.734,33.338,NaN,NaN
20040725,010034,1049090,33.819000,-121.833167,17.731,33.338,NaN,NaN
20040725,010104,1049120,33.819167,-121.833333,17.722,33.338,NaN,NaN
20040725,010134,1049150,33.819167,-121.833333,17.727,33.339,NaN,NaN
20040725,010204,1049180,33.819167,-121.833500,17.735,33.337,NaN,NaN
20040725,010234,1049210,33.819167,-121.833500,17.737,33.337,NaN,NaN
20040725,010304,1049240,33.819333,-121.833667,17.745,33.337,NaN,NaN
20040725,010334,1049270,33.819333,-121.833833,17.756,33.338,NaN,NaN
20040725,010404,1049300,33.819333,-121.834000,17.758,33.337,NaN,NaN
20040725,010434,1049330,33.819333,-121.834000,17.751,33.338,NaN,NaN
20040725,010504,1049360,33.819500,-121.834167,17.742,33.338,NaN,NaN
20040725,010534,1049390,33.819500,-121.834333,17.748,33.338,NaN,NaN
20040725,010604,1049420,33.819500,-121.834500,17.751,33.337,NaN,NaN
20040725,010634,1049450,33.819667,-121.834500,17.754,33.338,NaN,NaN
20040725,010704,1049480,33.819667,-121.834667,17.750,33.338,NaN,NaN
20040725,010734,1049510,33.819667,-121.834667,17.750,33.338,NaN,NaN
20040725,010804,1049540,33.819667,-121.834833,17.751,33.338,NaN,NaN
20040725,010834,1049570,33.819667,-121.834833,17.754,33.337,NaN,NaN
20040725,010904,1049600,33.819833,-121.835000,17.751,33.337,NaN,NaN
20040725,010934,1049630,33.820000,-121.835500,17.754,33.337,NaN,NaN
20040725,011004,1049660,33.820000,-121.835833,17.763,33.337,NaN,NaN
20040725,011034,1049690,33.820167,-121.836167,17.766,33.338,NaN,NaN
20040725,011104,1049720,33.820167,-121.836500,17.743,33.339,NaN,NaN
20040725,011134,1049750,33.820333,-121.836833,17.734,33.338,NaN,NaN
20040725,011204,1049780,33.820333,-121.837167,17.727,33.337,NaN,NaN
20040725,011234,1049810,33.820333,-121.837500,17.723,33.338,NaN,NaN
20040725,011304,1049840,33.820333,-121.837833,17.718,33.338,NaN,NaN
20040725,011334,1049870,33.820500,-121.838167,17.688,33.339,NaN,NaN
20040725,011404,1049900,33.820500,-121.838333,17.690,33.337,NaN,NaN
20040725,011434,1049930,33.820667,-121.838500,17.688,33.336,NaN,NaN
20040725,011504,1049960,33.820667,-121.838667,17.685,33.336,NaN,NaN
20040725,011534,1049990,33.820667,-121.838833,17.678,33.338,NaN,NaN
20040725,011604,1050020,33.820667,-121.839000,17.651,33.338,NaN,NaN
20040725,011634,1050050,33.820667,-121.839167,17.621,33.338,NaN,NaN
20040725,011704,1050080,33.820667,-121.839333,17.627,33.336,NaN,NaN
20040725,011734,1050110,33.820667,-121.839333,17.633,33.335,NaN,NaN
20040725,011804,1050140,33.820667,-121.839500,17.650,33.335,NaN,NaN
20040725,011834,1050170,33.820667,-121.839833,17.663,33.335,NaN,NaN
20040725,011904,1050200,33.820667,-121.840000,17.670,33.336,NaN,NaN
20040725,011934,1050230,33.820833,-121.840167,17.651,33.336,NaN,NaN
20040725,012004,1050260,33.820833,-121.840500,17.657,33.335,NaN,NaN
20040725,012034,1050290,33.821000,-121.840667,17.674,33.335,NaN,NaN
20040725,012104,1050320,33.821000,-121.840833,17.685,33.335,NaN,NaN
20040725,012134,1050350,33.821167,-121.841167,17.696,33.335,NaN,NaN
20040725,012204,1050380,33.821167,-121.841333,17.693,33.335,NaN,NaN
20040725,012234,1050410,33.821167,-121.841667,17.680,33.336,NaN,NaN
20040725,012304,1050440,33.821333,-121.841833,17.678,33.335,NaN,NaN
20040725,012334,1050470,33.821333,-121.841833,17.687,33.334,NaN,NaN
20040725,012404,1050500,33.821333,-121.842000,17.684,33.335,NaN,NaN
20040725,012434,1050530,33.821333,-121.842000,17.685,33.335,NaN,NaN
20040725,012504,1050560,33.821333,-121.842500,17.677,33.335,NaN,NaN
20040725,012534,1050590,33.821500,-121.842667,17.683,33.335,NaN,NaN
20040725,012604,1050620,33.821500,-121.842833,17.683,33.335,NaN,NaN
20040725,012634,1050650,33.821500,-121.843000,17.683,33.335,NaN,NaN
20040725,012704,1050680,33.821500,-121.843167,17.678,33.335,NaN,NaN
20040725,012734,1050710,33.821500,-121.843333,17.679,33.335,NaN,NaN
20040725,012804,1050740,33.821500,-121.843500,17.680,33.335,NaN,NaN
20040725,012834,1050770,33.821667,-121.843667,17.676,33.336,NaN,NaN
20040725,012904,1050800,33.821667,-121.843833,17.675,33.335,NaN,NaN
20040725,012934,1050830,33.821667,-121.843833,17.675,33.335,NaN,NaN
20040725,013004,1050860,33.821667,-121.844167,17.674,33.335,NaN,NaN
20040725,013034,1050890,33.821833,-121.844500,17.673,33.335,NaN,NaN
20040725,013104,1050920,33.821833,-121.844500,17.667,33.334,NaN,NaN
20040725,013134,1050950,33.821833,-121.844667,17.659,33.335,NaN,NaN
20040725,013204,1050980,33.822000,-121.845000,17.653,33.335,NaN,NaN
20040725,013234,1051010,33.822000,-121.845167,17.652,33.333,NaN,NaN
20040725,013304,1051040,33.822000,-121.845333,17.648,33.334,NaN,NaN
20040725,013334,1051070,33.822000,-121.845667,17.645,33.333,NaN,NaN
20040725,013404,1051100,33.822167,-121.845667,17.644,33.334,NaN,NaN
20040725,013434,1051130,33.822167,-121.845833,17.649,33.333,NaN,NaN
20040725,013504,1051160,33.822167,-121.845833,17.652,33.333,NaN,NaN
20040725,013534,1051190,33.822167,-121.846000,17.654,33.333,NaN,NaN
20040725,013604,1051220,33.822167,-121.846000,17.655,33.333,NaN,NaN
20040725,013634,1051250,33.822167,-121.846000,17.658,33.333,NaN,NaN
20040725,013704,1051280,33.822167,-121.846000,17.661,33.332,NaN,NaN
20040725,013734,1051310,33.822167,-121.846167,17.661,33.333,NaN,NaN
20040725,013804,1051340,33.822167,-121.846167,17.661,33.333,NaN,NaN
20040725,013834,1051370,33.822167,-121.846167,17.662,33.333,NaN,NaN
20040725,013904,1051400,33.822000,-121.846167,17.663,33.332,NaN,NaN
20040725,013934,1051430,33.822000,-121.846167,17.664,33.333,NaN,NaN
20040725,014004,1051460,33.822000,-121.846167,17.665,33.332,NaN,NaN
20040725,014034,1051490,33.822000,-121.846000,17.665,33.333,NaN,NaN
20040725,014103,1051519,33.821833,-121.846000,17.666,33.332,NaN,NaN
20040725,014133,1051549,33.821667,-121.846000,17.665,33.333,NaN,NaN
20040725,014203,1051579,33.821667,-121.846000,17.664,33.333,NaN,NaN
20040725,014233,1051609,33.821667,-121.845833,17.664,33.333,NaN,NaN
20040725,014303,1051639,33.821500,-121.845833,17.663,33.333,NaN,NaN
20040725,014333,1051669,33.821500,-121.845833,17.664,33.332,NaN,NaN
20040725,014403,1051699,33.821333,-121.845833,17.665,33.333,NaN,NaN
20040725,014433,1051729,33.821333,-121.845833,17.666,33.332,NaN,NaN
20040725,014503,1051759,33.821333,-121.845833,17.667,33.332,NaN,NaN
20040725,014533,1051789,33.821167,-121.845833,17.666,33.332,NaN,NaN
20040725,014603,1051819,33.821167,-121.845833,17.667,33.332,NaN,NaN
20040725,014633,1051849,33.821167,-121.846000,17.666,33.332,NaN,NaN
20040725,014703,1051879,33.821167,-121.846000,17.666,33.332,NaN,NaN
20040725,014733,1051909,33.821000,-121.846000,17.665,33.332,NaN,NaN
20040725,014803,1051939,33.821000,-121.846000,17.662,33.332,NaN,NaN
20040725,014833,1051969,33.821000,-121.846000,17.661,33.332,NaN,NaN
20040725,014903,1051999,33.821000,-121.846000,17.664,33.331,NaN,NaN
20040725,014933,1052029,33.821000,-121.846000,17.662,33.332,NaN,NaN
20040725,015003,1052059,33.821000,-121.846000,17.662,33.332,NaN,NaN
20040725,015033,1052089,33.821000,-121.846000,17.661,33.332,NaN,NaN
20040725,015103,1052119,33.821000,-121.846000,17.661,33.332,NaN,NaN
20040725,015133,1052149,33.821000,-121.846000,17.660,33.332,NaN,NaN
20040725,015203,1052179,33.821000,-121.846000,17.660,33.331,NaN,NaN
20040725,015233,1052209,33.821000,-121.846000,17.656,33.331,NaN,NaN
20040725,015303,1052239,33.821000,-121.845833,17.652,33.332,NaN,NaN
20040725,015333,1052269,33.821000,-121.845667,17.647,33.332,NaN,NaN
20040725,015403,1052299,33.821167,-121.845500,17.628,33.332,NaN,NaN
20040725,015433,1052329,33.821167,-121.845333,17.589,33.333,NaN,NaN
20040725,015503,1052359,33.821167,-121.845167,17.556,33.333,NaN,NaN
20040725,015533,1052389,33.821167,-121.844833,17.528,33.332,NaN,NaN
20040725,015603,1052419,33.821167,-121.844500,17.574,33.330,NaN,NaN
20040725,015633,1052449,33.821333,-121.844167,17.619,33.331,NaN,NaN
20040725,015703,1052479,33.821167,-121.843833,17.636,33.332,NaN,NaN
20040725,015733,1052509,33.821167,-121.843500,17.644,33.333,NaN,NaN
20040725,015803,1052539,33.821000,-121.843167,17.649,33.334,NaN,NaN
20040725,015833,1052569,33.821000,-121.843000,17.653,33.333,NaN,NaN
20040725,015903,1052599,33.820833,-121.842833,17.652,33.334,NaN,NaN
20040725,015933,1052629,33.820833,-121.842667,17.654,33.333,NaN,NaN
20040725,020003,1052659,33.820667,-121.842667,17.656,33.334,NaN,NaN
20040725,020033,1052689,33.820667,-121.842500,17.656,33.334,NaN,NaN
20040725,020103,1052719,33.820500,-121.842500,17.655,33.334,NaN,NaN
20040725,020133,1052749,33.820333,-121.842333,17.659,33.334,NaN,NaN
20040725,020203,1052779,33.820333,-121.842333,17.658,33.334,NaN,NaN
20040725,020233,1052809,33.820333,-121.842333,17.658,33.334,NaN,NaN
20040725,020303,1052839,33.820167,-121.842167,17.656,33.334,NaN,NaN
20040725,020333,1052869,33.820000,-121.842000,17.655,33.334,NaN,NaN
20040725,020403,1052899,33.820000,-121.841833,17.657,33.334,NaN,NaN
20040725,020433,1052929,33.820000,-121.841667,17.659,33.334,NaN,NaN
20040725,020503,1052959,33.820000,-121.841500,17.660,33.335,NaN,NaN
20040725,020533,1052989,33.820000,-121.841500,17.661,33.334,NaN,NaN
20040725,020603,1053019,33.819833,-121.841333,17.662,33.334,NaN,NaN
20040725,020633,1053049,33.819833,-121.841167,17.661,33.334,NaN,NaN
20040725,020703,1053079,33.819833,-121.841167,17.662,33.335,NaN,NaN
20040725,020733,1053109,33.819667,-121.841000,17.661,33.334,NaN,NaN
20040725,020803,1053139,33.819500,-121.840833,17.656,33.334,NaN,NaN
20040725,020833,1053169,33.819333,-121.840833,17.651,33.335,NaN,NaN
20040725,020903,1053199,33.819167,-121.840833,17.641,33.335,NaN,NaN
20040725,020933,1053229,33.818833,-121.841000,17.637,33.334,NaN,NaN
20040725,021003,1053259,33.818667,-121.841167,17.643,33.334,NaN,NaN
20040725,021033,1053289,33.818333,-121.841500,17.653,33.333,NaN,NaN
20040725,021103,1053319,33.818167,-121.841833,17.666,33.333,NaN,NaN
20040725,021133,1053349,33.817833,-121.842333,17.672,33.332,NaN,NaN
20040725,021203,1053379,33.817500,-121.843000,17.670,33.332,NaN,NaN
20040725,021233,1053409,33.817167,-121.843500,17.655,33.333,NaN,NaN
20040725,021303,1053439,33.816833,-121.844333,17.623,33.333,NaN,NaN
20040725,021333,1053469,33.816167,-121.845167,17.603,33.331,NaN,NaN
20040725,021403,1053499,33.815333,-121.846333,17.573,33.330,NaN,NaN
20040725,021433,1053529,33.814500,-121.847500,17.544,33.327,NaN,NaN
20040725,021503,1053559,33.814000,-121.848833,17.545,33.326,NaN,NaN
20040725,021533,1053589,33.813333,-121.850167,17.554,33.325,NaN,NaN
20040725,021603,1053619,33.812833,-121.851667,17.562,33.325,NaN,NaN
20040725,021633,1053649,33.812167,-121.853000,17.574,33.325,NaN,NaN
20040725,021703,1053679,33.811500,-121.854500,17.575,33.326,NaN,NaN
20040725,021733,1053709,33.810833,-121.855833,17.566,33.326,NaN,NaN
20040725,021803,1053739,33.810167,-121.857333,17.556,33.326,NaN,NaN
20040725,021833,1053769,33.809667,-121.858667,17.552,33.326,NaN,NaN
20040725,021903,1053799,33.809000,-121.860167,17.550,33.327,NaN,NaN
20040725,021933,1053829,33.808333,-121.861500,17.530,33.329,NaN,NaN
20040725,022003,1053859,33.807667,-121.863000,17.480,33.331,NaN,NaN
20040725,022033,1053889,33.807000,-121.864333,17.410,33.331,NaN,NaN
20040725,022103,1053919,33.806333,-121.865833,17.341,33.330,NaN,NaN
20040725,022133,1053949,33.805667,-121.867167,17.303,33.333,NaN,NaN
20040725,022203,1053979,33.805000,-121.868500,17.293,33.334,NaN,NaN
20040725,022233,1054009,33.804500,-121.870000,17.311,33.337,NaN,NaN
20040725,022303,1054039,33.803833,-121.871333,17.359,33.340,NaN,NaN
20040725,022333,1054069,33.803167,-121.872833,17.385,33.346,NaN,NaN
20040725,022403,1054099,33.802500,-121.874167,17.403,33.350,NaN,NaN
20040725,022433,1054129,33.801833,-121.875500,17.427,33.352,NaN,NaN
20040725,022503,1054159,33.801167,-121.877000,17.447,33.355,NaN,NaN
20040725,022533,1054189,33.800500,-121.878333,17.460,33.354,NaN,NaN
20040725,022603,1054219,33.799833,-121.879667,17.450,33.353,NaN,NaN
20040725,022633,1054249,33.799167,-121.881167,17.430,33.352,NaN,NaN
20040725,022703,1054279,33.798500,-121.882500,17.417,33.350,NaN,NaN
20040725,022733,1054309,33.797833,-121.884000,17.418,33.345,NaN,NaN
20040725,022803,1054339,33.797167,-121.885333,17.435,33.341,NaN,NaN
20040725,022833,1054369,33.796500,-121.886833,17.458,33.338,NaN,NaN
20040725,022903,1054399,33.795667,-121.888167,17.475,33.334,NaN,NaN
20040725,022933,1054429,33.795000,-121.889667,17.463,33.330,NaN,NaN
20040725,023003,1054459,33.794333,-121.891000,17.438,33.325,NaN,NaN
20040725,023033,1054489,33.793667,-121.892500,17.427,33.323,NaN,NaN
20040725,023103,1054519,33.793000,-121.893833,17.421,33.321,NaN,NaN
20040725,023133,1054549,33.792333,-121.895333,17.423,33.319,NaN,NaN
20040725,023203,1054579,33.791667,-121.896667,17.409,33.318,NaN,NaN
20040725,023233,1054609,33.791000,-121.898167,17.393,33.316,NaN,NaN
20040725,023303,1054639,33.790333,-121.899500,17.377,33.314,NaN,NaN
20040725,023333,1054669,33.789500,-121.901000,17.378,33.312,NaN,NaN
20040725,023403,1054699,33.788833,-121.902333,17.388,33.310,NaN,NaN
20040725,023433,1054729,33.788167,-121.903833,17.394,33.308,NaN,NaN
20040725,023503,1054759,33.787500,-121.905167,17.395,33.307,NaN,NaN
20040725,023533,1054789,33.786833,-121.906667,17.396,33.303,NaN,NaN
20040725,023603,1054819,33.786167,-121.908000,17.407,33.300,NaN,NaN
20040725,023633,1054849,33.785500,-121.909500,17.415,33.298,NaN,NaN
20040725,023703,1054879,33.784833,-121.911000,17.415,33.296,NaN,NaN
20040725,023733,1054909,33.784167,-121.912333,17.411,33.295,NaN,NaN
20040725,023803,1054939,33.783333,-121.913833,17.411,33.294,NaN,NaN
20040725,023833,1054969,33.782667,-121.915167,17.421,33.294,NaN,NaN
20040725,023903,1054999,33.782000,-121.916667,17.422,33.295,NaN,NaN
20040725,023933,1055029,33.781333,-121.918000,17.420,33.295,NaN,NaN
20040725,024003,1055059,33.780667,-121.919500,17.422,33.295,NaN,NaN
20040725,024033,1055089,33.780000,-121.920833,17.430,33.295,NaN,NaN
20040725,024103,1055119,33.779333,-121.922333,17.448,33.297,NaN,NaN
20040725,024133,1055149,33.778667,-121.923667,17.459,33.301,NaN,NaN
20040725,024203,1055179,33.778000,-121.925167,17.478,33.303,NaN,NaN
20040725,024233,1055209,33.777167,-121.926500,17.511,33.308,NaN,NaN
20040725,024303,1055239,33.776500,-121.928000,17.545,33.312,NaN,NaN
20040725,024333,1055269,33.775833,-121.929500,17.565,33.307,NaN,NaN
20040725,024403,1055299,33.775000,-121.930833,17.553,33.292,NaN,NaN
20040725,024433,1055329,33.774500,-121.932333,17.477,33.266,NaN,NaN
20040725,024503,1055359,33.773667,-121.933833,17.441,33.237,NaN,NaN
20040725,024533,1055389,33.773000,-121.935333,17.434,33.219,NaN,NaN
20040725,024603,1055419,33.772333,-121.936667,17.422,33.203,NaN,NaN
20040725,024633,1055449,33.771667,-121.938167,17.415,33.186,NaN,NaN
20040725,024703,1055479,33.771000,-121.939667,17.400,33.170,NaN,NaN
20040725,024733,1055509,33.770333,-121.941167,17.399,33.159,NaN,NaN
20040725,024803,1055539,33.769667,-121.942500,17.387,33.152,NaN,NaN
20040725,024833,1055569,33.769000,-121.944000,17.372,33.147,NaN,NaN
20040725,024903,1055599,33.768333,-121.945500,17.385,33.140,NaN,NaN
20040725,024933,1055629,33.767833,-121.947000,17.422,33.136,NaN,NaN
20040725,025003,1055659,33.767167,-121.948333,17.433,33.136,NaN,NaN
20040725,025033,1055689,33.766333,-121.949833,17.425,33.134,NaN,NaN
20040725,025103,1055719,33.765833,-121.951333,17.400,33.134,NaN,NaN
20040725,025133,1055749,33.765000,-121.952667,17.381,33.134,NaN,NaN
20040725,025203,1055779,33.764333,-121.954167,17.403,33.135,NaN,NaN
20040725,025233,1055809,33.763833,-121.955667,17.433,33.140,NaN,NaN
20040725,025303,1055839,33.763000,-121.957167,17.472,33.147,NaN,NaN